Weather History for Peoria, IL

Change the Weather History Date:

Friday, January 24, 2014

  Actual Average Record
Temperature  
Mean Temperature 15 °F 25 °F  
Max Temperature 34 °F 33 °F 68 °F (1950)
Min Temperature -5 °F 17 °F -13 °F (1915)
Degree Days  
Heating Degree Days 50 40  
Month to date heating degree days 1110 960  
Since 1 July heating degree days 3536 3238  
Cooling Degree Days 0 0  
Month to date cooling degree days 0 0  
Year to date cooling degree days 0 0  
Moisture  
Dew Point 3 °F    
Average Humidity 60    
Maximum Humidity 78    
Minimum Humidity 42    
Precipitation  
Precipitation T in 0.05 in 1.22 in (1938)
Month to date precipitation 1.92 1.42  
Year to date precipitation 1.92 1.42  
Snow  
Snow T in 0.20 in 6.00 in (1895)
Month to date snowfall 14.8 5.3  
Since 1 July snowfall 23.9 13.5  
Snow Depth 2.00 in    
Sea Level Pressure  
Sea Level Pressure 30.11 in    
Wind  
Wind Speed 18 mph (SW)    
Max Wind Speed 35 mph    
Max Gust Speed 45 mph    
Visibility 10 miles    
Events Snow    
T = Trace of Precipitation, MM = Missing Value Source: NWS Daily Summary

Daily Weather History Graph

Daily Weather History Graph

Search for Another Location

Airport:

Trip Planner

Search our weather history database for the weather conditions in past years. The results will help you decide how hot, cold, wet, or windy it might be!

Date:

Astronomy

Jan. 24, 2014 Rise Set
Actual Time 7:15 AM CST 5:06 PM CST
Civil Twilight 6:45 AM CST 5:36 PM CST
Nautical Twilight 6:12 AM CST 6:09 PM CST
Astronomical Twilight 5:40 AM CST 6:41 PM CST
Moon 12:42 AM CST (1/24) 11:25 AM CST (1/24)
Length of Visible Light 10h 50m
Length of Day
9h 51m
Last Quarter, 44% of the Moon is Illuminated
Jan 24
Last Quarter
Jan 30
New
Feb 6
First Quarter
Feb 14
Full
Feb 22
Last Quarter

Hourly Weather History & Observations

Time (CST) Temp. Windchill Dew Point Humidity Pressure Visibility Wind Dir Wind Speed Gust Speed Precip Events Conditions
12:54 AM -4.0 °F -16.3 °F -11.0 °F 72% 30.65 in 10.0 mi SW 5.8 mph - N/A   Clear
1:54 AM -4.0 °F -17.8 °F -9.9 °F 76% 30.63 in 10.0 mi SW 6.9 mph - N/A   Clear
2:54 AM -4.0 °F -17.8 °F -9.9 °F 76% 30.59 in 10.0 mi SSW 6.9 mph - N/A   Clear
3:54 AM -2.9 °F -17.7 °F -9.0 °F 75% 30.55 in 10.0 mi SSW 8.1 mph - N/A   Clear
4:54 AM -0.9 °F -17.4 °F -8.0 °F 72% 30.51 in 10.0 mi SSW 10.4 mph - N/A   Clear
5:54 AM -0.0 °F -17.1 °F -7.1 °F 72% 30.47 in 10.0 mi SSW 11.5 mph - N/A   Clear
6:54 AM 1.9 °F -15.5 °F -6.0 °F 69% 30.44 in 10.0 mi SSW 12.7 mph - N/A   Clear
7:54 AM 3.9 °F -15.0 °F -5.1 °F 66% 30.39 in 10.0 mi SSW 16.1 mph - N/A   Clear
8:54 AM 7.0 °F -12.1 °F -4.0 °F 61% 30.35 in 10.0 mi SSW 18.4 mph - N/A   Clear
9:54 AM 12.0 °F -6.9 °F -0.9 °F 56% 30.26 in 10.0 mi SSW 21.9 mph - N/A   Clear
10:54 AM 15.1 °F -3.7 °F -0.9 °F 49% 30.18 in 10.0 mi SSW 24.2 mph 31.1 mph N/A   Clear
11:54 AM 18.0 °F -1.4 °F 1.0 °F 48% 30.08 in 10.0 mi SSW 29.9 mph 40.3 mph N/A   Clear
12:54 PM 21.0 °F 3.0 °F 3.9 °F 48% 30.01 in 8.0 mi SW 28.8 mph 40.3 mph N/A   Clear
1:54 PM 24.1 °F 6.9 °F 6.1 °F 46% 29.95 in 10.0 mi SW 29.9 mph 38.0 mph N/A   Mostly Cloudy
2:54 PM 26.1 °F 10.7 °F 8.1 °F 47% 29.92 in 10.0 mi SW 25.3 mph 32.2 mph N/A   Overcast
3:54 PM 27.0 °F 13.2 °F 9.0 °F 47% 29.89 in 10.0 mi SW 20.7 mph - N/A   Overcast
4:54 PM 28.0 °F 14.9 °F 9.0 °F 45% 29.87 in 10.0 mi SW 19.6 mph - N/A   Overcast
5:54 PM 28.0 °F 15.7 °F 10.9 °F 49% 29.84 in 10.0 mi SW 17.3 mph - N/A   Overcast
6:54 PM 30.0 °F 18.7 °F 12.0 °F 47% 29.81 in 10.0 mi SW 16.1 mph - N/A   Overcast
7:54 PM 30.9 °F 18.4 °F 12.9 °F 47% 29.78 in 10.0 mi WSW 20.7 mph 34.5 mph N/A   Overcast
8:54 PM 30.9 °F 18.1 °F 17.1 °F 57% 29.73 in 10.0 mi WSW 21.9 mph 29.9 mph 0.00 in   Overcast
9:54 PM 32.0 °F 20.5 °F 19.0 °F 59% 29.70 in 8.0 mi WSW 18.4 mph 33.4 mph 0.00 in Snow Light Snow
10:54 PM 32.0 °F 19.5 °F 19.9 °F 61% 29.65 in 10.0 mi SW 21.9 mph - 0.00 in   Overcast
11:54 PM 34.0 °F 22.1 °F 19.0 °F 54% 29.60 in 10.0 mi WSW 21.9 mph 35.7 mph 0.00 in   Overcast